ECMWFFLT2_sfc_temp_021.txt.gz
Temp
71 72 73 74 74 74 74 74 74 75 75 75 75 75 75 75 75 74 75 75 75 74 74 74 74 74 74 74 74 74 74 73 73 72 71 69 68 68 68 67 67 66 65 64 63 63 62 62 62 62 62 71
69 71 72 72 73 73 73 73 74 74 74 74 74 73 73 72 72 72 73 73 74 74 73 73 73 73 72 73 73 73 73 72 72 71 70 68 68 68 67 67 66 65 64 63 63 62 61 61 61 62 63 70
73 67 70 71 71 71 72 72 72 73 73 72 72 72 71 70 69 68 69 70 71 71 70 69 69 71 72 72 72 72 72 72 71 69 69 68 68 67 66 66 65 64 63 63 62 61 60 59 60 59 66 69
77 68 65 68 69 70 70 70 71 71 70 69 68 68 67 64 67 66 68 64 69 66 68 66 68 68 70 71 72 72 71 71 70 69 68 68 67 66 65 65 64 63 62 62 61 60 59 60 55 66 69 68
77 75 65 66 65 66 68 69 69 69 66 63 63 65 62 63 74 74 73 70 73 63 70 63 63 66 69 71 71 71 71 70 69 68 68 67 66 65 64 62 61 61 61 60 60 58 59 55 63 67 68 68
78 77 70 75 75 73 70 67 66 70 75 67 75 63 67 74 76 76 74 74 69 71 70 66 61 64 68 70 69 69 70 69 68 68 67 67 66 64 62 60 61 59 57 57 58 59 56 62 68 67 67 68
78 79 76 76 76 75 69 72 72 75 75 76 76 73 74 76 77 76 76 75 71 71 64 68 60 63 65 67 66 67 68 68 68 67 67 66 64 63 61 63 65 64 62 60 54 55 63 67 66 66 67 67
78 78 78 76 76 77 76 76 75 75 76 76 76 75 75 76 77 76 76 66 62 64 70 66 60 61 63 64 63 64 66 66 66 66 65 63 62 61 62 67 67 66 66 66 67 68 67 66 65 66 66 66
78 78 78 78 78 78 79 77 76 76 76 76 76 76 76 76 76 75 75 72 71 71 71 70 69 67 68 68 68 62 67 67 66 65 63 62 62 65 66 67 67 67 67 67 67 67 67 66 66 65 65 65
77 76 77 77 78 78 78 77 76 77 76 76 76 76 75 76 75 74 74 71 71 70 70 70 69 69 69 69 68 66 68 68 66 65 65 63 64 67 67 67 67 68 68 67 67 67 65 66 66 65 65 65
77 77 77 77 78 77 77 77 76 76 76 76 76 75 75 74 74 73 73 70 70 69 71 70 70 69 70 69 68 67 68 68 66 67 66 65 65 67 66 66 65 65 65 65 65 64 64 64 65 65 65 65
77 77 76 76 76 76 75 76 76 77 77 76 76 74 75 75 74 72 72 70 70 69 71 70 70 70 70 70 69 68 69 67 67 66 67 66 66 65 64 64 64 64 64 64 64 63 63 63 64 64 64 63
77 77 76 76 76 75 72 76 76 77 77 76 76 75 74 74 73 72 72 70 70 70 70 70 70 70 70 70 69 68 69 67 66 66 66 66 65 64 64 64 63 64 64 65 65 64 62 62 63 63 63 63
76 76 75 75 75 76 74 75 76 76 76 76 75 75 74 73 73 72 72 70 70 69 69 69 69 69 69 68 69 68 67 67 66 66 66 65 64 65 64 64 64 64 63 64 63 64 62 62 63 63 63 62
75 75 75 74 75 75 75 75 75 75 75 75 76 75 73 72 73 73 72 71 70 69 69 68 68 68 68 68 68 67 67 67 66 67 66 65 65 65 65 65 64 65 63 62 62 62 62 62 63 63 63 63
74 75 75 75 75 75 75 75 75 75 75 73 74 74 72 72 72 73 72 71 69 69 68 68 67 67 67 67 67 67 67 66 66 67 66 65 66 66 66 65 64 65 64 62 62 61 61 62 63 63 63 62
75 75 75 75 75 75 74 74 74 74 74 73 73 73 71 71 72 72 71 70 69 68 68 67 66 66 66 67 67 66 66 65 65 65 64 63 64 65 64 63 62 63 64 62 61 61 62 62 62 62 62 61
74 75 75 75 75 74 74 74 74 73 74 73 73 72 70 70 71 71 72 70 68 68 68 66 65 65 66 66 66 66 64 63 64 64 62 61 63 61 63 61 61 62 61 62 62 61 61 62 61 62 61 61
74 74 74 74 74 74 73 73 73 73 73 73 73 72 70 69 69 70 70 70 68 67 67 66 65 65 65 66 65 64 63 63 63 63 62 62 62 62 63 62 61 62 61 61 60 61 61 61 61 61 60 60
74 74 73 73 69 73 72 73 72 73 73 73 73 72 69 68 69 68 70 69 68 66 67 66 65 65 65 65 64 63 63 63 63 63 62 62 63 60 61 61 60 62 61 61 60 60 61 61 60 60 60 59
73 73 72 72 72 72 72 71 72 72 73 72 72 71 70 68 68 67 68 68 67 66 66 66 65 65 64 64 63 62 62 62 63 63 60 62 63 62 61 60 59 61 61 59 59 59 59 59 59 59 59 59
71 71 71 71 71 71 71 70 71 72 72 71 71 71 69 68 67 66 67 67 66 66 66 66 65 65 64 62 62 62 61 62 63 63 62 61 62 63 62 60 59 60 60 58 57 57 57 58 59 59 59 59
70 70 70 70 69 69 69 69 70 70 70 70 70 70 69 68 66 66 66 65 65 65 65 65 65 64 62 62 62 61 61 61 62 62 61 61 60 63 62 62 60 60 58 56 56 56 57 57 57 58 58 58
68 68 67 66 67 67 66 67 66 68 70 70 69 69 68 67 66 65 65 65 65 65 64 64 64 63 61 61 61 60 59 60 61 60 59 60 59 59 61 62 61 60 57 56 55 54 55 55 56 56 56 57
67 65 65 66 65 65 67 66 67 67 68 68 69 68 67 66 65 65 64 64 64 63 62 64 64 63 60 61 61 60 59 60 61 60 61 60 59 58 57 58 60 57 57 54 52 54 53 53 55 54 55 55
67 67 67 66 66 66 66 65 64 64 65 66 67 66 65 65 64 64 63 63 63 63 63 62 63 62 60 60 60 60 61 60 58 59 60 59 57 58 57 56 57 56 57 53 52 49 49 51 53 53 54 55
67 67 68 67 67 67 66 67 67 66 65 65 65 64 63 64 63 63 62 62 62 62 62 62 62 61 60 59 60 59 59 59 58 58 58 58 57 56 58 57 57 56 58 55 56 55 52 48 46 49 51 53
67 67 67 66 66 65 66 64 64 64 63 62 62 61 62 62 62 62 62 61 61 61 61 61 61 62 60 59 59 59 58 58 57 58 58 57 58 57 54 55 54 57 58 60 56 50 51 52 51 48 46 48
66 64 63 63 62 63 62 61 61 61 60 60 60 60 60 60 61 61 61 61 61 60 60 60 61 61 60 59 59 59 59 58 58 58 58 58 58 57 56 53 53 55 57 58 61 58 53 50 48 51 53 49
64 64 63 62 60 59 59 58 59 58 59 60 59 59 61 61 60 60 60 60 60 60 59 59 60 60 60 59 58 58 59 60 59 57 57 57 58 57 59 57 53 52 55 57 57 57 58 56 54 53 50 50
63 62 62 61 60 60 60 59 61 63 63 62 62 62 60 60 60 60 59 59 60 59 59 59 59 59 59 59 59 59 59 59 58 58 57 58 58 58 58 58 53 52 52 55 55 55 54 53 51 56 50 49

ECMWFFLT2_sfc_temp_024.txt.gz
Temp
71 72 73 74 74 74 74 74 75 75 75 75 75 75 74 74 74 74 75 75 75 75 75 75 74 74 74 74 75 75 75 74 74 73 72 70 69 68 68 67 67 66 66 65 65 64 64 64 64 63 61 60
69 71 72 72 73 73 73 73 74 74 74 74 74 73 73 73 73 73 73 73 74 74 74 73 73 74 74 74 74 75 74 74 73 72 72 69 68 68 68 67 66 66 65 65 64 63 63 63 63 62 61 57
68 67 70 71 71 71 72 72 72 73 72 72 72 72 71 70 69 69 70 71 71 72 71 70 70 72 73 74 74 74 73 73 73 72 71 69 68 67 67 66 66 65 65 64 64 63 62 61 60 59 59 57
70 66 66 68 69 69 70 70 71 71 70 69 69 68 68 66 65 64 66 65 67 67 69 68 66 69 70 72 73 73 73 73 72 71 70 68 68 67 66 66 65 64 64 63 63 62 61 60 56 55 55 56
71 69 64 65 66 67 68 69 69 69 67 64 63 64 62 62 66 65 65 64 65 63 65 63 64 67 70 71 71 71 72 72 71 70 69 68 67 66 65 63 63 63 63 63 62 61 60 57 52 55 55 56
72 71 66 69 68 67 67 65 65 66 68 64 66 61 62 66 66 65 64 64 63 63 63 62 62 65 68 70 69 69 71 71 71 70 69 68 67 66 63 60 53 53 59 60 61 59 58 52 53 55 55 54
71 70 68 69 69 69 65 66 65 67 67 67 67 64 65 66 67 66 65 64 63 64 61 62 61 64 66 68 67 67 69 70 70 69 68 67 66 64 62 55 51 50 49 50 56 56 51 53 54 56 55 53
71 70 69 69 69 69 68 68 67 68 68 67 67 66 66 66 67 67 66 63 62 62 62 61 60 63 64 65 63 65 65 67 68 68 68 67 64 61 56 53 52 52 50 50 51 51 53 53 55 54 53 52
70 70 69 69 70 69 69 69 68 68 68 68 68 66 66 67 66 67 66 64 62 62 61 60 59 60 61 60 59 61 59 60 61 61 59 58 56 53 53 53 55 55 53 54 54 54 54 53 53 53 52 53
70 70 68 69 70 70 70 69 69 68 68 68 69 67 67 67 67 67 64 62 62 62 61 60 59 59 59 60 59 60 59 57 58 56 55 54 53 53 55 54 54 54 54 53 53 53 52 52 52 51 51 53
69 69 70 69 70 69 69 69 69 68 69 69 68 68 66 66 65 65 63 62 61 61 61 60 59 59 59 59 58 59 58 58 57 56 54 52 54 53 54 53 53 53 53 52 52 52 52 52 52 52 51 51
70 70 70 69 68 69 69 69 69 69 69 69 69 68 67 66 66 64 63 62 61 60 61 60 60 59 59 59 58 59 59 58 56 55 54 54 54 53 52 52 52 52 53 52 51 51 51 51 51 51 51 51
71 70 70 68 68 68 67 69 68 68 68 68 68 67 67 66 65 63 64 62 61 60 60 59 60 59 59 59 58 59 58 58 57 56 54 54 54 53 53 51 51 51 51 51 51 51 51 50 50 51 52 50
70 70 69 69 69 67 67 67 68 67 67 67 67 66 66 66 65 64 64 61 60 61 60 59 60 59 59 59 58 59 59 55 56 55 52 53 54 53 52 53 53 51 51 50 51 50 49 51 52 49 49 50
70 69 69 69 69 68 67 67 67 66 66 66 66 66 66 66 65 64 64 62 62 61 60 59 59 59 59 58 58 59 58 57 56 54 53 54 52 54 53 52 51 51 51 50 50 50 49 50 51 50 50 50
68 69 69 68 69 69 67 67 67 65 66 64 65 65 66 66 65 64 64 63 63 61 59 58 58 57 58 57 56 58 55 55 56 55 54 53 52 52 52 52 52 50 50 49 50 48 49 49 50 50 49 50
67 67 67 66 67 67 67 66 66 66 65 65 66 65 65 66 66 64 64 62 63 60 59 58 57 57 58 58 57 57 55 55 54 54 52 54 52 53 52 53 51 51 51 50 49 50 49 49 50 49 49 49
65 65 65 65 64 65 65 65 66 66 65 65 64 64 64 65 65 65 64 62 61 60 59 58 57 57 56 55 56 56 55 54 53 52 52 52 52 54 53 51 51 49 51 48 48 47 48 48 48 48 49 49
64 64 64 63 63 65 64 65 64 63 65 63 64 64 62 63 63 64 63 62 61 60 59 58 56 56 55 57 56 54 53 54 53 52 52 50 52 51 49 50 51 50 51 49 50 49 48 48 48 48 47 48
63 64 63 63 62 63 62 62 62 62 63 63 62 62 61 62 62 62 63 61 61 60 59 58 57 56 56 56 55 54 53 54 53 52 51 51 51 50 49 51 50 49 49 49 49 48 49 48 48 47 47 48
64 63 63 63 63 64 62 62 62 62 62 62 61 60 59 60 61 61 62 60 60 60 58 57 57 56 56 55 54 53 52 51 52 52 51 51 51 51 47 49 49 47 50 49 48 48 47 47 47 48 48 47
62 62 61 61 61 61 62 62 62 63 62 61 61 61 59 59 60 60 60 59 58 57 58 56 56 56 56 55 54 52 52 52 52 51 51 51 49 51 50 48 50 48 48 49 48 47 47 47 47 46 47 46
60 61 60 60 60 60 60 59 61 61 60 60 60 59 58 59 60 59 59 58 57 58 56 55 55 55 54 54 53 52 51 51 52 51 51 51 50 50 50 49 49 49 48 48 47 46 46 46 46 46 46 46
57 59 57 56 57 57 58 57 58 59 59 58 58 58 57 57 57 57 58 56 56 57 56 54 54 54 53 53 52 51 50 50 50 51 50 50 51 50 48 50 50 48 47 45 45 43 44 44 45 46 47 47
56 55 55 56 56 56 56 57 57 58 58 58 58 57 57 56 58 59 59 57 56 57 55 56 53 53 52 52 52 51 51 51 51 50 51 49 49 49 49 47 48 48 48 46 42 44 42 44 45 46 46 47
56 57 57 55 56 56 57 55 54 55 56 57 57 54 55 55 54 56 55 55 55 56 55 55 53 53 52 52 52 51 51 50 50 49 49 49 47 48 49 47 48 48 48 42 42 40 39 41 43 44 44 45
56 57 56 56 54 55 54 56 56 54 54 54 55 54 53 53 54 53 53 53 53 55 55 54 53 53 52 52 52 50 50 50 49 49 50 49 50 45 45 46 47 48 52 43 41 41 40 36 38 41 42 42
55 56 55 55 55 54 53 52 52 53 53 52 52 52 52 52 53 53 52 52 51 52 54 54 54 53 50 52 51 51 50 50 50 49 49 49 49 48 46 44 46 48 48 46 47 40 40 37 37 34 37 39
54 54 52 52 53 52 52 52 51 50 50 50 51 50 51 51 53 52 51 51 50 50 51 51 52 52 52 52 51 51 51 50 51 51 51 51 49 48 50 45 43 46 48 47 53 47 41 38 38 38 36 39
53 53 52 51 48 47 47 47 48 48 49 49 49 49 49 51 51 51 51 50 50 49 50 49 50 50 52 52 52 51 50 51 49 49 50 51 51 49 49 49 44 44 46 48 48 46 47 43 39 39 37 40
52 52 51 50 49 48 48 47 49 50 50 51 50 49 50 50 51 51 50 49 49 49 48 49 49 48 49 51 52 52 51 50 50 50 51 50 50 51 50 48 45 46 46 47 46 47 47 44 41 41 42 36

ECMWFFLT2_sfc_temp_030.txt.gz
Temp
71 72 73 74 74 74 74 74 75 75 75 75 75 75 75 75 73 73 73 74 74 74 74 74 74 74 74 74 75 75 76 76 76 75 74 72 69 68 68 68 67 67 67 67 67 66 66 64 63 60 57 55
69 71 72 72 73 73 73 73 74 74 74 74 73 73 72 71 72 72 73 73 74 74 74 73 73 74 74 74 74 74 75 76 76 74 72 69 69 68 68 67 67 67 67 67 66 65 64 63 62 59 57 53
69 68 70 71 71 71 72 72 72 72 72 71 72 71 70 69 69 68 69 70 72 72 71 70 70 72 73 74 74 74 74 75 74 73 70 69 68 68 67 67 66 66 66 66 65 64 63 60 58 57 55 51
69 67 66 68 69 69 70 70 71 71 70 68 67 68 67 66 66 64 66 65 68 68 70 69 67 69 71 73 73 74 74 74 73 72 69 69 68 67 66 67 66 65 65 65 64 63 61 58 56 50 49 49
70 69 65 65 66 67 68 69 69 69 67 64 63 63 62 62 67 66 66 66 68 64 68 64 64 68 70 72 72 72 72 73 73 71 69 68 68 67 66 65 64 64 65 64 63 61 59 55 49 48 48 50
71 71 66 69 68 67 67 65 65 66 67 64 65 61 64 66 66 66 65 66 65 66 65 63 63 65 69 71 69 69 71 72 72 71 68 68 67 66 64 61 48 50 58 61 60 58 55 46 45 46 48 48
70 70 69 70 69 68 65 65 64 66 65 65 66 64 65 64 65 64 65 65 64 64 61 63 62 64 66 68 67 68 69 70 72 72 70 69 68 64 61 50 45 45 44 45 52 50 45 44 44 45 46 47
69 70 70 70 70 69 68 67 66 66 66 65 66 65 65 65 65 64 65 62 60 61 62 63 61 63 65 66 64 65 65 67 69 69 70 68 66 59 51 44 45 45 45 44 43 44 44 44 45 45 45 46
68 69 69 69 69 68 68 68 67 67 67 67 67 66 65 65 64 64 64 63 63 62 62 61 63 63 64 61 58 61 58 60 61 62 59 59 54 48 47 45 44 45 47 46 47 45 44 46 44 44 44 44
68 68 68 68 69 68 68 68 68 67 67 67 67 66 65 64 64 63 62 61 61 61 60 60 60 61 60 58 58 56 57 55 57 56 55 53 51 48 46 46 44 44 47 46 47 46 45 45 45 43 43 44
66 66 68 68 68 68 67 68 67 67 67 67 66 66 65 64 63 63 62 61 60 61 60 60 60 59 58 58 57 56 56 55 55 54 53 52 51 47 46 45 45 44 45 44 45 45 45 44 44 43 44 44
65 65 66 67 66 67 67 66 67 67 68 67 66 65 65 64 65 63 61 61 60 60 60 60 59 58 56 57 55 55 56 55 52 53 52 51 49 48 45 45 44 44 44 43 43 45 44 44 43 43 43 42
64 64 64 66 66 66 65 67 67 68 67 66 66 65 65 64 64 63 62 61 61 59 59 58 57 56 56 55 55 54 55 55 53 51 50 51 50 49 48 44 44 44 44 43 43 46 44 44 43 43 42 42
63 63 63 64 65 66 65 66 67 66 66 66 65 64 64 64 65 63 62 61 59 58 57 56 56 55 55 55 54 54 55 52 53 51 49 49 50 49 46 44 44 44 44 44 44 43 46 44 45 43 43 42
63 62 63 63 64 64 64 65 65 65 66 66 65 65 64 64 64 63 61 60 58 56 56 56 55 55 54 54 54 54 55 53 53 51 51 50 49 49 47 46 44 44 46 44 43 44 44 46 43 43 43 43
62 62 62 62 62 63 63 63 63 64 64 65 65 64 63 63 63 62 62 61 59 57 56 55 55 54 54 54 53 54 53 52 52 51 50 48 48 47 47 46 43 43 45 43 46 42 43 42 43 43 42 43
62 62 61 61 61 62 62 62 62 62 62 63 62 62 62 61 61 61 60 59 59 57 56 56 55 54 54 54 54 54 52 52 50 49 47 47 47 45 45 45 44 43 43 44 44 42 43 42 43 43 42 43
60 60 60 60 60 60 60 61 61 61 61 62 62 62 61 61 61 60 59 59 57 57 56 55 55 55 54 53 53 53 52 51 49 49 47 46 46 47 46 45 44 43 43 42 42 42 42 41 45 43 43 43
58 57 58 58 59 59 60 60 60 60 60 60 61 61 60 60 60 60 59 58 58 57 56 55 54 54 54 53 53 53 52 51 49 49 48 45 47 44 44 43 43 44 45 43 45 45 44 45 44 40 45 43
55 56 55 56 57 59 58 58 59 58 60 59 59 60 60 59 59 60 60 59 58 57 56 56 55 55 53 53 52 52 51 51 49 48 48 47 48 45 43 43 43 41 42 41 44 42 42 43 43 43 42 44
55 55 56 56 56 56 56 56 57 57 57 58 59 57 58 58 58 58 58 57 57 57 56 55 55 53 54 53 53 51 50 50 50 49 48 46 47 49 46 44 43 40 41 41 42 41 40 41 41 43 44 44
55 56 56 56 56 56 56 55 55 55 56 56 55 57 58 56 56 56 57 57 56 56 56 55 55 53 53 53 52 52 50 50 48 48 49 48 46 47 46 45 45 43 40 41 41 40 39 40 40 41 41 44
55 55 56 56 56 56 55 56 55 55 55 55 55 55 55 55 55 55 56 56 56 57 55 55 55 55 54 54 53 53 51 50 48 47 47 49 46 43 45 47 45 45 42 42 40 40 40 39 39 41 40 41
53 54 53 53 54 54 53 53 53 54 53 54 54 54 54 55 55 55 55 56 56 56 55 54 54 55 54 53 53 52 51 50 50 50 48 47 47 45 43 42 42 40 41 37 37 38 39 37 37 39 39 39
50 50 49 50 50 48 50 51 53 52 52 53 53 54 54 54 54 55 54 53 54 54 53 54 52 52 51 51 51 52 52 53 52 53 52 50 47 46 44 42 39 40 42 42 41 37 35 36 36 36 39 40
50 48 46 48 47 48 49 51 51 50 51 52 54 54 54 54 54 54 53 52 52 52 52 52 51 52 51 51 52 52 52 51 50 50 49 49 48 47 48 46 42 42 45 40 39 39 38 36 38 36 37 40
46 47 48 48 47 47 47 46 47 47 46 49 50 50 51 51 52 52 52 51 51 52 51 50 50 50 50 50 50 49 50 50 50 50 50 49 51 47 45 47 43 43 47 41 35 33 37 35 38 38 41 41
46 46 47 47 48 48 48 46 47 49 49 49 50 50 48 47 47 48 48 48 48 48 48 48 48 48 49 50 50 50 49 49 49 49 49 49 50 50 47 47 46 46 47 40 44 39 41 33 33 34 40 41
46 48 47 48 49 49 48 49 48 47 47 45 45 47 46 46 46 47 46 46 46 46 46 45 46 47 48 50 50 50 49 49 49 49 49 50 49 49 51 48 46 46 46 46 50 45 33 34 36 35 32 33
46 45 45 45 44 43 43 42 42 41 40 42 42 41 43 45 44 44 46 45 45 45 44 45 44 44 47 48 49 50 50 50 50 49 49 50 50 49 50 50 47 45 46 47 47 44 42 39 37 36 31 39
44 44 43 42 41 41 40 39 39 40 41 41 42 43 43 43 44 43 43 44 44 44 44 44 43 43 42 43 45 47 49 49 50 50 50 50 49 49 50 48 46 47 47 46 46 45 46 42 36 31 36 39

ECMWFFLT2_sfc_temp_033.txt.gz
Temp
71 72 73 74 74 74 74 74 75 75 75 75 75 75 75 75 74 73 73 74 74 74 74 74 75 74 74 75 75 75 75 75 76 75 75 70 69 68 68 67 67 67 67 67 67 66 65 63 61 59 56 54
69 71 72 72 72 72 73 73 74 74 74 74 73 73 72 71 71 72 72 73 73 73 73 73 73 74 74 74 74 75 75 75 75 75 70 70 69 68 68 67 67 67 67 67 66 65 63 62 61 59 57 52
68 67 69 70 71 71 71 72 72 72 72 71 71 71 70 68 68 67 68 70 71 72 71 70 70 72 73 74 74 74 74 74 74 70 70 69 69 68 67 67 66 67 66 66 65 64 61 59 57 56 53 49
69 66 65 68 69 69 70 70 71 70 69 67 67 67 66 65 65 64 66 64 68 67 70 68 67 69 70 73 73 73 74 74 73 70 69 69 68 68 67 67 66 66 65 65 64 62 60 57 55 49 48 47
70 69 64 65 65 66 67 68 68 69 66 63 63 63 62 62 67 66 65 66 68 63 68 64 64 68 70 72 71 71 72 73 72 70 69 69 68 67 67 65 64 64 65 64 63 61 57 54 47 46 47 48
70 70 66 68 68 66 66 65 64 65 66 63 64 61 64 66 66 66 65 65 65 66 66 64 62 65 69 71 69 69 71 72 71 69 69 68 68 67 65 61 46 46 54 60 60 58 54 45 44 44 45 45
70 70 69 68 69 68 64 65 64 65 64 64 64 64 65 65 66 66 66 66 64 64 62 64 61 64 66 69 67 68 69 70 71 69 69 68 67 65 62 49 44 43 41 41 52 50 45 42 42 43 44 45
69 69 69 69 69 68 68 68 66 66 65 64 64 65 65 66 66 66 66 63 61 62 63 63 60 63 64 65 64 65 66 67 69 68 69 68 66 58 49 43 44 43 42 42 41 42 41 41 42 43 44 45
68 69 69 69 69 69 68 68 68 67 67 66 66 65 66 66 65 65 65 64 63 63 63 62 63 63 64 63 62 62 61 60 59 60 55 56 53 47 47 47 44 43 46 44 43 42 41 42 41 42 43 43
68 68 68 68 68 69 68 68 67 68 67 67 67 66 66 65 65 65 64 63 63 63 63 62 62 62 63 61 61 60 59 56 54 53 53 52 50 47 46 44 42 42 44 45 45 42 42 41 42 41 41 42
67 67 68 68 68 68 67 67 67 67 68 67 67 66 66 65 64 64 63 62 62 62 62 62 61 61 61 61 61 59 60 56 52 52 51 50 50 45 45 44 43 40 41 40 43 43 43 42 42 41 41 42
67 67 67 67 65 67 67 67 66 67 67 67 66 66 65 65 65 64 62 62 62 62 61 62 62 61 59 59 59 57 59 56 51 50 49 49 46 46 44 45 45 41 41 40 40 44 43 42 41 41 41 41
66 66 66 66 66 66 65 67 68 66 66 67 67 65 65 65 64 63 63 62 62 61 60 60 60 59 59 58 58 57 56 55 52 50 50 49 49 46 45 44 45 43 42 40 40 42 43 42 42 41 41 41
64 65 65 65 66 67 66 66 67 67 65 65 65 65 65 65 65 64 63 62 61 60 60 59 59 58 58 58 56 56 57 53 53 51 48 48 47 47 45 44 43 45 42 41 41 40 42 42 43 40 41 40
63 63 64 64 65 66 66 66 65 66 67 65 64 64 64 63 63 64 63 62 61 60 59 58 58 58 57 56 56 56 56 52 53 51 51 51 49 48 46 46 42 44 43 40 41 41 42 43 41 41 40 41
60 61 61 62 64 65 65 64 65 65 65 64 65 64 63 63 63 61 62 62 61 60 59 57 57 56 56 56 54 55 55 53 52 51 48 48 47 46 46 44 42 41 43 41 42 40 40 40 41 41 40 41
59 59 59 59 60 63 63 64 64 64 64 65 64 63 63 63 62 61 62 61 61 60 59 57 56 56 56 57 56 54 54 53 51 50 48 46 45 45 44 45 44 43 42 41 41 39 41 39 41 40 40 41
57 56 56 57 57 59 61 62 63 63 63 64 64 63 63 63 63 62 61 62 60 59 59 58 57 57 56 56 55 54 53 53 51 51 49 47 46 46 46 45 43 43 43 41 39 39 39 38 42 39 40 40
55 54 57 57 57 58 59 60 62 61 61 61 62 62 62 62 62 62 61 60 60 59 59 58 56 55 55 53 52 53 53 53 51 51 51 47 48 43 44 43 43 42 44 42 44 43 40 42 41 38 41 39
53 54 54 55 55 56 56 57 58 58 59 59 59 60 60 61 61 61 61 60 59 58 57 57 56 55 53 52 53 53 52 51 51 50 49 47 48 45 44 43 43 40 41 40 42 40 39 40 40 40 39 40
55 55 55 56 56 56 55 56 56 56 56 57 57 57 57 57 58 58 58 57 57 57 57 57 57 55 54 52 52 51 50 51 50 49 49 46 47 49 47 43 43 41 40 41 40 38 38 38 39 39 41 41
54 55 55 55 55 55 55 55 56 56 56 56 56 56 55 56 56 55 56 56 56 56 55 55 54 53 52 52 52 52 51 52 50 50 50 49 47 48 48 45 45 44 41 40 41 39 39 38 37 38 38 40
53 54 55 55 55 54 54 55 55 55 55 55 55 55 55 56 56 55 55 56 55 55 54 54 53 54 53 52 52 51 51 50 49 49 49 51 48 47 48 47 44 45 43 41 40 39 38 36 36 37 37 38
52 53 51 52 54 54 54 55 54 55 55 55 54 54 55 54 54 54 54 55 54 54 53 53 52 52 51 51 51 51 50 49 48 48 48 48 47 45 45 44 43 43 44 41 39 37 38 34 36 38 38 37
48 48 49 50 49 49 51 52 53 53 53 54 54 54 54 54 54 53 53 53 53 53 52 52 51 51 50 50 50 50 50 49 49 48 49 47 47 47 45 45 43 43 46 45 44 39 39 40 37 36 38 38
47 45 45 46 46 47 48 49 48 48 49 50 50 50 50 51 52 52 51 51 52 52 52 52 51 50 50 50 50 49 49 49 48 49 48 47 47 47 47 47 45 43 48 43 45 45 38 35 38 41 38 39
45 45 46 47 45 46 45 45 45 45 44 46 46 47 47 46 48 49 49 49 48 49 49 50 50 49 49 49 49 48 48 48 49 49 48 48 48 47 45 45 44 46 49 46 40 40 43 40 38 38 37 40
44 45 45 46 46 46 46 43 44 46 46 45 45 44 44 43 44 45 45 45 44 45 45 45 46 45 46 46 45 45 45 44 46 47 47 47 47 47 46 46 46 46 47 44 47 44 43 39 37 40 39 34
44 45 45 46 47 46 45 45 44 43 43 42 42 43 42 42 42 42 42 42 42 42 42 43 43 44 45 45 45 46 44 45 45 46 47 47 47 47 46 45 45 45 46 46 48 47 39 39 40 40 40 36
44 43 42 42 42 41 40 38 38 37 37 38 39 39 40 42 41 41 41 41 41 41 41 41 41 41 43 43 44 45 45 47 47 48 47 47 48 47 47 47 45 44 45 46 47 45 45 45 44 42 38 42
43 42 41 40 39 38 38 37 36 37 38 38 39 40 40 40 41 40 40 40 40 40 40 40 40 40 40 41 42 43 45 45 46 47 48 48 48 47 48 47 45 46 46 46 45 45 46 43 40 40 43 42